Weather in Kirkjubour

Denmark     61°57′15″N   6°47′39″W
В апреле 2022 года жителям России запретили посещать сайт meteo.paraplan.net по решению Генеральной прокуратуры. Аудитория сайта уменьшилась в 10 раз. Владельцы сайта не видят смысла в поддержке погодного сервера в таких условиях. Сайт будет закрыт в октябре.
temp.,
°C
wind,
m/s
gust,
m/s
humid.,
%
clouds,
%
prec.,
mm/h
press.,
hPa
HPBL,
m
25 september, sun
sun2501:00+11wsw101593100 0.5 1010457
04:00+11wsw142188100 0.0 1006568
07:00+11sw172589100 0.2 999732
10:00+11sw202894100 1.0 9901190
13:00+10w1723733 1.6 9861487
16:00+9w15207798 0.1 9851756
19:00+8nw12147188 0.4 9871365
22:00+5nw152177100 0.3 9911638
26 september, mon
mon2601:00+5nw18268279 0.4 9921527
04:00+5nw18257987 0.3 9951579
07:00+5nw162378100 0.5 9961664
10:00+5nw17248387 0.6 9951630
13:00+4nw18238893 1.4 9931344
16:00+5wnw192595100 2.7 9911334
19:00+7nw141987100 4.0 9911321
22:00+8nw122087100 3.6 9911506
27 september, tue
tue2701:00+9n13178297 5.3 9911355
04:00+9n15208413 1.0 9921464
07:00+9nne12147912 1.2 9971222
10:00+9nne1012828 0.1 10001040
13:00+10nne9118416 0.2 1002705
16:00+10nnw798697 0.1 1003523
19:00+9nnw81192100 0.7 1004706
22:00+9nnw71089100 0.1 1004746
28 september, wed
wed2801:00+9nw6991100 0.3 1004589
04:00+10nw599399 0.8 1004617
07:00+10nnw4693100 2.0 1004475
10:00+10nw239157 0.5 1005142
13:00+11s018574 0.6 1006142
16:00+10sse128628 0.2 1006177
19:00+10wsw01886 0.3 100733
22:00+10wnw33865 0.0 100858
29 september, thu
thu2901:00+9wnw33856 0.0 100878
04:00+9nw33854 0.0 100875
07:00+9wnw118358 0.0 100853
10:00+9wsw34835 0.0 1008254
13:00+10sw568447 0.0 1007464
16:00+10ssw6786100 0.1 1005561
19:00+10s71088100 0.6 1003491
22:00+9s91293100 2.1 1000773